Location: Mercogliano
(40.9167°N, 14.7333°E)
Time: 12:59:22
(UTC+00:00)

DMSP B5D1-3 - Pass Details

Date: 18 September 2020
Orbit: 767 x 781 km, 98.5° (Epoch: 28 October)

Event Time Altitude Azimuth Distance (km) Brightness Sun altitude
Rises 17:39:29 0° 15° (NNE) 3,245 7.7 -7.4°
Reaches altitude 10° 17:41:49 10° 18° (NNE) 2,315 6.9 -7.8°
Maximum altitude 17:46:54 70° 102° (ESE) 819 4.5 -8.8°
Drops below altitude 10° 17:51:57 10° 186° (S) 2,301 6.9 -9.7°
Sets 17:54:16 0° 189° (S) 3,225 7.7 -10.2°
